www.pogodaiklimat.ru

Погода и климат >> Архив погоды >> Индонезия >> Купанг


ПОГОДА в Купанге

  • Прогноз погоды в Купанге
  • Монитор погоды в Купанге

АРХИВ ПОГОДЫ в Купанге

Время (UTC), дата Ветер
(напр.,м/с)
 
Видим.   Явления Облачность Т
(С)
Тd
(С)
f
(%)
Тe
(С)
Тes
(С)
Комфортность P
(гПа)
Po
(гПа)
Тmin
(С)
Tmax
(С)
R
(мм)
R24
(мм)
S
(см)
09 17.09 СЗ 3 10 км 4/1 540 м
[Cu hum Ac trans Ci fib]
+28.2 +23.1 74 +38 +38 очень
душно
1013.1 1000.9
12 17.09 ЮВ 6 8000 м 4/1 600 м
[Cu hum Ci fib]
+25.3 +20.1 73 +31 +31 очень
душно
1015.2 1003.0 +33.8
15 17.09 ЮВ 4 8000 м 3/1 600 м
[Cu hum Ci fib]
+24.0 +18.7 72 +29 +29 душно 1015.9 1003.7
18 17.09 В 4 8000 м 3/1 600 м
[Cu hum Ci fib]
+23.0 +17.4 71 +28 +28 душно 1015.1 1002.8
21 17.09 ЮВ 4 8000 м 3/1 600 м
[Cu hum Ci fib]
+22.3 +19.2 83 +28 +28 душно 1015.6 1003.4
00 18.09 В 5 10 км 4/1 600 м
[Cu hum Ci sp]
+26.2 +19.8 68 +32 +35 очень
душно
1017.4 1005.1 +22.2
03 18.09 В 7 10 км 4/4 540 м
[Cu hum Ci sp]
+31.2 +21.7 57 +40 +43 очень
душно
1015.6 1003.4
06 18.09 СЗ 6 10 км 4/4 480 м
[Cu hum Ci sp]
+30.4 +20.8 57 +38 +42 очень
душно
1013.5 1001.3
09 18.09 В 5 10 км 3/3 540 м
[Cu hum Ci fib]
+29.8 +20.6 58 +37 +37 очень
душно
1013.5 1001.3
12 18.09 В 2 8000 м 3/1 540 м
[Cu hum Ci fib]
+25.6 +21.0 76 +32 +32 очень
душно
1015.4 1003.2 +32.2
15 18.09 В 2 8000 м 3/1 540 м
[Cu hum Ci fib]
+23.8 +20.3 81 +29 +29 душно 1015.6 1003.3
18 18.09 В 2 8000 м 3/1 540 м
[Cu hum Ci fib]
+22.6 +20.0 85 +29 +29 очень
душно
1014.3 1002.1
21 18.09 ЮВ 2 8000 м 3/1 540 м
[Cu hum Ci fib]
+21.6 +19.2 86 +27 +27 душно 1014.5 1002.3
00 19.09 СВ 3 10 км 4/1 540 м
[Cu hum Ci sp]
+24.6 +19.0 71 +30 +35 очень
душно
1017.0 1004.7 +21.0
03 19.09 СВ 3 10 км 3/1 540 м
[Cu hum Ci fib]
+31.5 +21.7 56 +40 +54 опасность
солнечного
удара
1014.9 1002.6
06 19.09 СЗ 5 10 км 3/1 540 м
[Cu hum Ci fib]
+29.4 +22.8 68 +39 +46 очень
душно
1013.0 1000.8
09 19.09 СЗ 4 10 км 3/1 540 м
[Cu hum Ci fib]
+28.4 +22.6 71 +38 +38 очень
душно
1013.0 1000.8
12 19.09 З 1 8000 м 3/1 540 м
[Cu hum Ci fib]
+25.0 +21.9 83 +32 +32 очень
душно
1014.5 1002.2 +32.2
15 19.09 В 2 8000 м 3/1 540 м
[Cu hum Ci fib]
+23.0 +20.5 86 +30 +30 очень
душно
1014.6 1002.4
18 19.09 ЮВ 2 8000 м 3/1 540 м
[Cu hum Ci fib]
+22.0 +20.1 89 +28 +28 душно 1013.9 1001.7
21 19.09 ЮВ 2 8000 м 3/1 540 м
[Cu hum Ci fib]
+20.8 +19.3 91 +26 +26 душно 1014.7 1002.5
00 20.09 В 4 10 км 4/1 600 м
[Cu hum Ci fib]
+25.0 +19.1 70 +30 +34 душно 1016.1 1003.8 +20.6
03 20.09 В 6 10 км 1/1 600 м
[Cu hum Ci fib]
+31.4 +19.3 49 +37 +45 очень
душно
1014.3 1002.1
06 20.09 СЗ 5 10 км 1/1 600 м
[Cu hum Ci fib]
+30.0 +23.3 67 +40 +47 очень
душно
1012.0 999.8
09 20.09 В 5 10 км 1/1 600 м
[Cu hum Ci fib]
+29.4 +20.4 58 +36 +36 очень
душно
1012.1 999.9
12 20.09 В 2 8000 м 1/1 600 м
[Cu hum Ci fib]
+24.6 +20.6 78 +31 +31 очень
душно
1013.9 1001.7 +32.0
15 20.09 ЮВ 3 8000 м 1/1 600 м
[Cu hum Ci fib]
+22.6 +19.4 82 +29 +29 очень
душно
1014.0 1001.8
18 20.09 В 2 8000 м 1/1 600 м
[Cu hum Ci fib]
+22.2 +19.6 85 +28 +28 душно 1013.3 1001.0
21 20.09 ЮВ 1 8000 м 1/1 600 м
[Cu hum Ci fib]
+20.0 +18.2 89 +24 +24 комфорт 1013.8 1001.7
00 21.09 СЗ 2 10 км 1/1 600 м
[Cu hum Ci fib]
+24.6 +20.7 79 +31 +37 очень
душно
1015.1 1002.9 +19.8
03 21.09 СЗ 4 10 км 4/3 540 м
[Cu hum Ci fib]
+29.0 +21.9 66 +37 +47 очень
душно
1014.2 1002.0
06 21.09 СЗ 4 10 км 4/3 600 м
[Cu hum Ci fib]
+29.0 +21.7 65 +37 +45 очень
душно
1012.3 1000.1
09 21.09 В 3 10 км 4/3 600 м
[Cu hum Ci fib]
+28.6 +21.9 67 +37 +37 очень
душно
1012.4 1000.2
12 21.09 В 4 8000 м 1/1 600 м
[Cu hum Ci fib]
+24.8 +20.6 77 +31 +31 очень
душно
1014.1 1001.9 +30.0
15 21.09 В 4 8000 м 1/1 600 м
[Cu hum Ci fib]
+24.0 +20.4 80 +30 +30 очень
душно
1014.7 1002.4
18 21.09 В 2 8000 м 1/1 600 м
[Cu hum Ci fib]
+22.4 +19.0 81 +28 +28 душно 1014.0 1001.8
21 21.09 Ю 1 8000 м 1/1 600 м
[Cu hum Ci fib]
+20.2 +18.6 91 +25 +25 комфорт 1014.8 1002.6
00 22.09 СЗ 2 10 км 1/1 600 м
[Cu hum Ci fib]
+25.4 +19.7 71 +31 +37 очень
душно
1016.3 1004.1 +20.0
03 22.09 СЗ 4 10 км 1/1 600 м
[Cu hum Ci fib]
+30.0 +21.3 60 +38 +52 опасность
солнечного
удара
1015.3 1003.0
06 22.09 СЗ 5 10 км 3/3 540 м
[Cu hum As trans Ci fib]
+30.1 +24.3 71 +42 +48 опасность
перегрева
1013.6 1001.4
09 22.09 В 6 10 км 3/1 540 м
[Cu hum Ci fib]
+29.3 +22.3 66 +38 +38 очень
душно
1013.6 1001.4
12 22.09 В 4 8000 м 3/1 570 м
[Cu hum Ci fib]
+26.4 +22.2 78 +34 +34 очень
душно
1015.9 1003.7 +31.6
15 22.09 В 2 8000 м 4/1 540 м
[Cu hum Ci fib]
+24.6 +22.4 88 +32 +32 очень
душно
1016.1 1003.8
18 22.09 ЮВ 2 8000 м 4/1 540 м
[Cu hum Ci fib]
+23.2 +20.0 82 +30 +30 очень
душно
1014.7 1002.5
21 22.09 Ю 2 8000 м 4/1 540 м
[Cu hum Ci fib]
+21.8 +19.4 86 +27 +27 душно 1015.6 1003.3
00 23.09 В 1 10 км 1/1 540 м
[Cu hum Ci fib]
+25.2 +21.5 80 +32 +39 очень
душно
1017.1 1004.9 +21.6
03 23.09 СЗ 4 10 км 4/4 540 м
[Cu hum Ci fib]
+30.0 +23.3 67 +40 +49 очень
душно
1015.9 1003.6
06 23.09 СЗ 5 10 км 8/6 540 м
[Cu hum As trans Ci fib]
+29.4 +23.8 72 +40 +43 очень
душно
1014.4 1002.2
09 23.09 СЗ 2 10 км 5/4 540 м
[Cu hum As trans Ci fib]
+27.6 +23.8 80 +38 +39 очень
душно
1014.3 1002.1
12 23.09 В 4 8000 м 4/3 540 м
[Cu hum Ci fib]
+26.3 +22.7 81 +35 +35 очень
душно
1015.7 1003.5 +30.2
15 23.09 ЮВ 3 8000 м 4/3 540 м
[Cu hum Ci fib]
+24.9 +21.6 82 +32 +32 очень
душно
1016.1 1003.8
18 23.09 В 3 8000 м 3/1 540 м
[Cu hum Ci fib]
+24.3 +21.7 85 +31 +31 очень
душно
1014.5 1002.3
21 23.09 В 3 8000 м 3/1 540 м
[Cu hum Ci fib]
+23.6 +21.6 89 +30 +30 очень
душно
1015.1 1002.8
00 24.09 В 5 10 км 3/3 540 м
[Cu hum Ci fib]
+27.6 +23.2 77 +37 +40 очень
душно
1016.4 1004.2 +23.6
03 24.09 В 9 10 км 5/5 540 м
[Cu hum Ci fib]
+31.0 +23.8 66 +43 +44 опасность
перегрева
1015.7 1003.4
06 24.09 В 9 10 км 3/3 540 м
[Cu hum Ci fib]
+32.7 +22.3 54 +42 +43 опасность
перегрева
1012.6 1000.4

 

Местоположение метеостанции Купанг (Индонезия): широта -10.16 долгота 123.66 высота над уровнем моря 108 м.

В архиве по умолчанию представлена погода в Купанге за последнюю неделю. Архивные данные за месяц целиком и за предыдущие месяцы, начиная с января 2011 года, Вы можете получить, выбрав интересующий диапазон дат из раскрывающегося списка и нажав кнопку "Ввод!".


*Определитесь, кто Вы:
робот инопланетянин человек

Внимание! Время в таблицах - всемирное. Для получения местного времени необходимо прибавить поправку, которая равна 8 ч.

Смотрите также архив погоды в соседних городах и на ближайших метеорологических станциях:

Погода на Роти (Индонезия) (90 км)
Погода в Сабу (Индонезия) (204 км)
Погода в Ларантуке (Индонезия) (223 км)
Погода в Маумере (Индонезия) (230 км)
Погода на Алоре (Индонезия) (237 км)
Погода в Аэропорту Умбу Механг Кунда (Индонезия) (369 км)
Погода в Рутенге (Индонезия) (391 км)
Погода на Острове Брауз (Западная Австралия, Австралия) (440 км)
Погода на Острове Троутон (Западная Австралия, Австралия) (483 км)
Погода в Трускотте (Западная Австралия, Австралия) (527 км)

Пояснения к столбцам:

Ветер - указаны скорость ветра в м/с - средняя за 10 мин, порывы в срок и между сроками (в фигурных скобках) и направление, откуда дует ветер: С - северный, СВ - северо-восточный, В - восточный, ЮВ - юго-восточный, Ю - южный, ЮЗ - юго-западный, З - западный, СЗ - северо-западный.
Видимость - горизонтальная дальность видимости в метрах или километрах. При видимости от 1 до 10 км при отсутствии осадков обычно наблюдается дымка, при ухудшении видимости до 1 км и менее - туман. В сухую погоду видимость может ухудшаться дымом, пылью или мглою.
Явления - указаны атмосферные явления, наблюдавшиеся в срок или в последний час перед сроком; фигурными скобками обозначены явления, наблюдавшиеся между сроками (за 1-3 часа до срока); квадратными скобками обозначены град или гололедные отложения с указанием их диаметра в мм.
Облачность - указаны через наклонную черту общая и нижняя облачность в баллах и высота нижней границы облаков в метрах; квадратными скобками обозначены формы облаков: Ci - перистые, Cs - перисто-слоистые, Cc - перисто-кучевые, Ac - высококучевые, As - высокослоистые, Sc - слоисто-кучевые, Ns - слоисто-дождевые, Cu - кучевые, Cb - кучево-дождевые. Подробнее классификацию облаков см. в Атласе облаков (PDF).
T - Температура воздуха - температура, измеренная на высоте 2 м над землей.
Td - Температура точки росы - температура, при понижении до которой содержащийся в воздухе водяной пар достигнет насыщения.
f - Относительная влажность воздуха - влажноcть воздуха, измеренная на высоте 2 м над землей.
Te - Эффективная температура - температура, которую ощущает одетый по сезону человек в тени. Характеристика душности погоды. При расчете учитывается влияние влажности воздуха и скорости ветра на теплоощущения человека.
Tes - Эффективная температура на солнце - температура, которую ощущает человек, с поправкой на солнечный нагрев. Характеристика знойности погоды. Зависит от высоты солнца над горизонтом, облачности и скорости ветра. Ночью, в пасмурную погоду, а также при ветре 12 м/с и более поправка равна нулю.
P - Атмосферное давление - приведенное к уровню моря атмосферное давление.
Po - Атмосферное давление - измеренное на уровне метеостанции атмосферное давление.
Tmin - Минимальная температура - минимум температуры воздуха на высоте 2 м над землей.
Tmax - Максимальная температура - максимум температуры воздуха на высоте 2 м над землей.
R - Количество осадков - Количество выпавших осадков за период времени, мм. При наведении курсора мыши на число - период времени, за который выпало указанное количество осадков.
R24 - Количество осадков - Количество выпавших осадков за 24 часа, мм.
S - Снежный покров - Высота снежного покрова, см. При наведении курсора мыши на число - состояние снежного покрова и степень покрытия местности в баллах.